FW5436 Weather Reports


Display with metric or nautical units.
time (UTC)temp
F
wind
direction
speed
MPH
gust
MPH
rain 1hr
in
rain 24hr
in
rain mn
in
humidity
%
barometer
mb
20260506025833 57 90 0.0 0.0 0.00 0.00 0.00 95 1013.4
20260506024411 57 90 0.0 0.0 0.00 0.00 0.00 95 1013.3
20260506023902 57 90 0.0 0.0 0.00 0.00 0.00 95 1013.5
20260506023350 57 90 0.0 0.0 0.00 0.00 0.00 95 1013.5
20260506022840 57 90 0.0 0.0 0.00 0.00 0.00 95 1013.5
20260506022331 56 90 0.0 0.0 0.00 0.00 0.00 95 1013.3
20260506021820 57 90 0.0 0.0 0.00 0.00 0.00 95 1013.6
20260506021310 57 90 0.0 0.0 0.00 0.00 0.00 95 1013.5
20260506020800 57 90 0.0 0.0 0.00 0.00 0.00 95 1013.6
20260506015740 57 90 0.0 0.0 0.00 0.00 0.00 95 1013.6
20260506015229 57 90 0.0 0.0 0.00 0.00 0.00 95 1013.8
20260506014720 58 90 0.0 0.0 0.00 0.00 0.00 95 1013.6
20260506014209 57 90 0.0 0.0 0.00 0.00 0.00 95 1013.5
20260506013659 57 90 0.0 0.0 0.00 0.00 0.00 95 1013.8
20260506013149 57 90 0.0 0.0 0.00 0.00 0.00 95 1014.0
20260506012639 58 90 0.0 0.0 0.00 0.00 0.00 95 1014.0
20260506012129 58 90 0.0 0.0 0.00 0.00 0.00 94 1014.1
20260506011108 59 90 0.0 0.0 0.00 0.00 0.00 94 1013.9
20260506010558 59 90 0.0 0.0 0.00 0.00 0.00 94 1013.8
20260506010059 59 90 0.0 0.0 0.00 0.00 0.00 94 1013.9
20260506005217 59 90 0.0 0.0 0.00 0.00 0.00 94 1013.9
20260506004156 60 90 0.0 0.0 0.00 0.00 0.00 94 1013.8
20260506003646 60 90 0.0 0.0 0.00 0.00 0.00 94 1013.9
20260506003136 60 90 0.0 0.0 0.00 0.00 0.00 94 1013.7
20260506002625 60 90 0.0 2.0 0.00 0.00 0.00 94 1013.4
20260506002115 60 90 0.0 2.0 0.00 0.00 0.00 94 1013.8
20260506001055 60 270 0.0 2.0 0.00 0.00 0.00 94 1013.6
20260506000545 60 248 0.0 0.0 0.00 0.00 0.00 94 1013.7
20260505235525 60 248 0.0 2.0 0.00 0.00 0.00 94 1013.8
20260505235016 60 248 0.0 2.0 0.00 0.00 0.00 93 1014.0
20260505234512 60 248 0.0 0.0 0.00 0.00 0.00 93 1013.9
20260505233445 60 248 0.0 0.0 0.00 0.00 0.00 93 1013.8
20260505232934 60 248 0.0 0.0 0.00 0.00 0.00 93 1013.9
20260505232424 60 248 0.0 0.0 0.00 0.00 0.00 93 1014.0
20260505231913 60 248 0.0 0.0 0.00 0.00 0.00 93 1014.0
20260505231404 60 248 0.0 0.0 0.00 0.00 0.00 93 1013.9
20260505230854 60 248 0.0 0.0 0.00 0.00 0.00 93 1014.0
20260505230343 61 338 0.0 2.0 0.00 0.00 0.00 93 1013.8
20260505225833 61 45 0.0 2.0 0.00 0.00 0.00 93 1013.6
20260505225323 61 158 0.0 2.0 0.00 0.00 0.00 92 1013.6
20260505224813 61 90 0.0 2.0 0.00 0.00 0.00 92 1013.6
20260505224302 61 45 0.0 2.0 0.00 0.00 0.00 92 1013.3
20260505223759 61 158 0.0 0.0 0.00 0.00 0.00 92 1013.2
20260505222536 61 113 1.0 2.0 0.00 0.00 0.00 92 1012.9
20260505220752 62 315 1.0 2.0 0.00 0.00 0.00 91 1013.0
20260505220244 62 158 0.0 0.0 0.00 0.00 0.00 91 1012.9
20260505215208 62 293 1.0 2.0 0.00 0.00 0.00 90 1012.9
20260505214658 62 180 0.0 2.0 0.00 0.00 0.00 90 1013.1
20260505214148 62 203 1.0 2.0 0.00 0.00 0.00 90 1013.1
20260505213637 62 68 0.0 2.0 0.00 0.00 0.00 89 1013.0
20260505213127 62 158 0.0 2.0 0.00 0.00 0.00 89 1012.9
20260505212616 62 90 1.0 2.0 0.00 0.00 0.00 89 1013.0
20260505212107 62 338 0.0 2.0 0.00 0.00 0.00 89 1013.0
20260505211557 62 315 0.0 4.0 0.00 0.00 0.00 89 1012.9
20260505211047 63 90 1.0 4.0 0.00 0.00 0.00 88 1012.8
20260505210544 63 203 2.0 4.0 0.00 0.00 0.00 88 1012.9
20260505210026 63 158 0.0 4.0 0.00 0.00 0.00 87 1012.7
20260505205516 63 45 1.0 4.0 0.00 0.00 0.00 86 1012.9
20260505205006 64 0 1.0 4.0 0.00 0.00 0.00 85 1012.7
20260505204456 64 68 1.0 4.0 0.00 0.00 0.00 83 1012.8
20260505203436 65 315 0.0 4.0 0.00 0.00 0.00 78 1012.8
20260505202421 67 68 0.0 4.0 0.00 0.00 0.00 76 1012.6
20260505201356 68 338 1.0 4.0 0.00 0.00 0.00 74 1012.8
20260505200845 69 90 1.0 2.0 0.00 0.00 0.00 70 1012.7
20260505200334 69 45 0.0 2.0 0.00 0.00 0.00 71 1012.5
20260505195824 68 315 0.0 4.0 0.00 0.00 0.00 72 1012.5
20260505195315 68 270 0.0 4.0 0.00 0.00 0.00 71 1012.7
20260505194805 69 68 1.0 4.0 0.00 0.00 0.00 71 1012.8
20260505194254 69 158 1.0 4.0 0.00 0.00 0.00 70 1012.8
20260505193745 69 225 1.0 2.0 0.00 0.00 0.00 68 1012.7
20260505193234 69 113 1.0 2.0 0.00 0.00 0.00 68 1012.9
20260505192724 69 270 1.0 2.0 0.00 0.00 0.00 68 1013.1
20260505192214 69 113 2.0 4.0 0.00 0.00 0.00 68 1013.0
20260505191703 70 113 1.0 4.0 0.00 0.00 0.00 65 1013.1
20260505190644 71 315 0.0 4.0 0.00 0.00 0.00 64 1013.0
20260505190133 73 135 1.0 4.0 0.00 0.00 0.00 60 1012.9
20260505185624 72 0 0.0 2.0 0.00 0.00 0.00 59 1012.8
20260505185113 71 293 0.0 4.0 0.00 0.00 0.00 61 1012.8
20260505184603 72 135 2.0 4.0 0.00 0.00 0.00 61 1012.7
20260505183542 70 293 0.0 6.0 0.00 0.00 0.00 64 1012.7
20260505183032 70 68 2.0 6.0 0.00 0.00 0.00 68 1012.6
20260505182522 70 135 1.0 4.0 0.00 0.00 0.00 66 1012.6
20260505182012 69 135 2.0 4.0 0.00 0.00 0.00 68 1012.4
20260505181502 70 270 1.0 4.0 0.00 0.00 0.00 69 1012.4
20260505180952 70 90 2.0 4.0 0.00 0.00 0.00 68 1012.6
20260505175931 70 68 0.0 4.0 0.00 0.00 0.00 67 1012.3
20260505174911 72 180 1.0 4.0 0.00 0.00 0.00 65 1012.3
20260505174401 74 23 1.0 4.0 0.00 0.00 0.00 58 1012.2
20260505173850 73 68 1.0 4.0 0.00 0.00 0.00 53 1012.4
20260505172831 73 45 1.0 2.0 0.00 0.00 0.00 53 1012.2
20260505172325 74 68 0.0 2.0 0.00 0.00 0.00 51 1012.4
20260505171300 74 45 1.0 4.0 0.00 0.00 0.00 52 1012.6
20260505170240 75 338 1.0 4.0 0.00 0.00 0.00 53 1012.4
20260505165730 73 45 0.0 4.0 0.00 0.00 0.00 53 1012.5
20260505165219 71 45 1.0 4.0 0.00 0.00 0.00 58 1012.7
20260505164709 71 68 1.0 4.0 0.00 0.00 0.00 58 1012.8
20260505164202 70 90 1.0 4.0 0.00 0.00 0.00 59 1012.6
20260505163650 70 68 1.0 4.0 0.00 0.00 0.00 60 1012.5
20260505163141 70 68 1.0 4.0 0.00 0.00 0.00 60 1012.6
20260505162628 70 113 2.0 4.0 0.00 0.00 0.00 59 1012.6
20260505162119 70 68 2.0 4.0 0.00 0.00 0.00 61 1012.6
20260505161608 69 90 1.0 4.0 0.00 0.00 0.00 62 1012.5
20260505161058 70 45 2.0 4.0 0.00 0.00 0.00 61 1012.7
20260505160548 70 338 1.0 4.0 0.00 0.00 0.00 60 1012.7
20260505152937 70 90 2.0 2.0 0.00 0.00 0.00 60 1012.8
20260505152427 70 0 0.0 2.0 0.00 0.00 0.00 65 1012.8
20260505151916 70 45 0.0 2.0 0.00 0.00 0.00 61 1012.6
20260505151406 70 23 1.0 2.0 0.00 0.00 0.00 60 1012.7
20260505150857 69 45 1.0 4.0 0.00 0.00 0.00 61 1012.8
20260505150347 68 45 2.0 4.0 0.00 0.00 0.00 63 1012.9
20260505140146 64 68 0.0 4.0 0.00 0.00 0.00 71 1012.8
20260505124925 59 68 1.0 2.0 0.00 0.00 0.00 80 1013.1
20260505123352 58 23 2.0 4.0 0.00 0.00 0.00 81 1013.2
20260505122841 58 68 1.0 4.0 0.00 0.00 0.00 80 1013.1
20260505122332 58 23 2.0 4.0 0.00 0.00 0.00 80 1013.1
20260505121312 58 45 1.0 4.0 0.00 0.00 0.00 79 1012.9
20260505120801 57 68 2.0 4.0 0.00 0.00 0.00 79 1012.8
20260505120252 57 68 1.0 2.0 0.00 0.00 0.00 80 1012.8
20260505115741 56 90 1.0 2.0 0.00 0.00 0.00 81 1012.8
20260505115231 56 68 1.0 4.0 0.00 0.00 0.00 81 1012.6
20260505114721 56 68 2.0 4.0 0.00 0.00 0.00 81 1012.6
20260505113701 56 45 0.0 2.0 0.00 0.00 0.00 81 1012.7
20260505113151 55 23 1.0 2.0 0.00 0.00 0.00 82 1012.6
20260505112640 54 23 2.0 2.0 0.00 0.00 0.00 83 1012.6
20260505112130 54 90 2.0 4.0 0.00 0.00 0.00 85 1012.3
20260505111620 53 68 1.0 4.0 0.00 0.00 0.00 86 1012.1
20260505111110 53 68 1.0 4.0 0.00 0.00 0.00 86 1012.3
20260505110559 52 90 2.0 4.0 0.00 0.00 0.00 87 1012.1
20260505101929 52 23 0.0 4.0 0.00 0.00 0.00 87 1012.0
20260505101419 52 68 1.0 4.0 0.00 0.00 0.00 87 1012.1
20260505100908 52 45 2.0 4.0 0.00 0.00 0.00 87 1012.1
20260505100358 52 45 2.0 2.0 0.00 0.00 0.00 87 1012.4
20260505095849 52 45 2.0 2.0 0.00 0.00 0.00 87 1012.2
20260505095339 52 68 1.0 4.0 0.00 0.00 0.00 87 1012.0
20260505094827 52 45 2.0 4.0 0.00 0.00 0.00 87 1011.7
20260505094317 52 68 1.0 2.0 0.00 0.00 0.00 87 1011.7
20260505093807 52 68 1.0 2.0 0.00 0.00 0.00 87 1011.5
20260505093257 52 0 0.0 4.0 0.00 0.00 0.00 87 1011.5
20260505092747 52 45 2.0 4.0 0.00 0.00 0.00 87 1011.6
20260505092237 52 45 1.0 2.0 0.00 0.00 0.00 87 1011.6
20260505091729 52 68 1.0 2.0 0.00 0.00 0.00 87 1011.6
20260505091217 52 68 1.0 2.0 0.00 0.00 0.00 86 1011.5
20260505090708 52 45 2.0 2.0 0.00 0.00 0.00 86 1011.4
20260505090156 52 45 0.0 2.0 0.00 0.00 0.00 86 1011.5
20260505083605 53 68 1.0 4.0 0.00 0.00 0.00 84 1010.9
20260505083056 53 0 2.0 4.0 0.00 0.00 0.00 84 1010.7
20260505082546 53 45 1.0 4.0 0.00 0.00 0.00 84 1010.7
20260505082035 54 68 2.0 4.0 0.00 0.00 0.00 84 1010.7
20260505081525 54 45 2.0 4.0 0.00 0.00 0.00 83 1010.8
20260505081015 54 45 1.0 4.0 0.00 0.00 0.00 83 1010.7
20260505075955 54 90 2.0 4.0 0.00 0.00 0.00 84 1010.9
20260505075445 54 68 2.0 4.0 0.00 0.00 0.00 84 1010.7
20260505074934 54 68 2.0 4.0 0.00 0.00 0.00 84 1010.7
20260505074425 54 68 2.0 4.0 0.00 0.00 0.00 84 1010.6
20260505073915 54 45 2.0 4.0 0.00 0.00 0.00 84 1010.8
20260505073404 54 45 2.0 4.0 0.00 0.00 0.00 84 1010.6
20260505072854 54 68 2.0 4.0 0.00 0.00 0.00 84 1010.9
20260505072344 54 338 1.0 6.0 0.00 0.00 0.00 84 1010.9
20260505071834 54 45 2.0 6.0 0.00 0.00 0.00 85 1010.9
20260505071323 54 45 2.0 4.0 0.00 0.00 0.00 85 1010.8
20260505070814 54 68 2.0 2.0 0.00 0.00 0.00 86 1010.6
20260505070303 54 90 1.0 4.0 0.00 0.00 0.00 86 1010.6
20260505065753 54 45 1.0 4.0 0.00 0.00 0.00 86 1010.8
20260505065243 54 45 2.0 4.0 0.00 0.00 0.00 86 1010.9
20260505064732 54 45 1.0 4.0 0.00 0.00 0.00 86 1010.7
20260505064223 54 23 1.0 4.0 0.00 0.00 0.00 86 1010.8
20260505063712 54 45 2.0 4.0 0.00 0.00 0.00 86 1010.5
20260505063202 54 68 1.0 4.0 0.00 0.00 0.00 86 1010.5
20260505062652 54 68 2.0 4.0 0.00 0.00 0.00 86 1010.7
20260505062142 55 23 2.0 6.0 0.00 0.00 0.00 85 1010.6
20260505061632 55 68 2.0 6.0 0.00 0.00 0.00 85 1010.5
20260505061121 55 158 2.0 6.0 0.00 0.00 0.00 85 1010.9
20260505060612 55 90 2.0 4.0 0.00 0.00 0.00 85 1011.1
20260505055551 55 68 2.0 4.0 0.00 0.00 0.00 85 1010.7
20260505055041 56 45 1.0 4.0 0.00 0.00 0.00 85 1010.4
20260505054531 56 23 2.0 4.0 0.00 0.00 0.00 86 1010.7
20260505054021 56 68 2.0 4.0 0.00 0.00 0.00 85 1011.0
20260505053512 56 68 2.0 4.0 0.00 0.00 0.00 85 1010.9
20260505053226 56 45 2.0 2.0 0.00 0.00 0.00 85 1010.9
20260505052544 56 68 1.0 4.0 0.00 0.00 0.00 85 1011.0
20260505052033 56 45 2.0 4.0 0.00 0.00 0.00 86 1010.9
20260505051533 56 45 1.0 4.0 0.00 0.00 0.00 86 1010.6
20260505051016 56 45 2.0 4.0 0.00 0.00 0.00 86 1010.6
20260505050503 56 23 2.0 4.0 0.00 0.00 0.00 86 1010.7
20260505041322 56 68 2.0 4.0 0.00 0.00 0.00 88 1010.8
20260505040811 57 68 2.0 4.0 0.00 0.00 0.00 89 1011.1
20260505035751 57 68 2.0 4.0 0.00 0.00 0.00 89 1010.8
20260505035241 57 90 1.0 4.0 0.00 0.00 0.00 88 1010.9
20260505034732 57 23 1.0 4.0 0.00 0.00 0.00 88 1010.7
20260505034221 58 113 0.0 4.0 0.00 0.00 0.00 87 1010.8
20260505033711 58 68 2.0 4.0 0.00 0.00 0.00 87 1010.7
20260505033200 58 68 2.0 4.0 0.00 0.00 0.00 86 1010.9
20260505032650 58 45 2.0 4.0 0.00 0.00 0.00 85 1010.7
20260505032140 58 68 0.0 4.0 0.00 0.00 0.00 85 1010.5
20260505031120 59 23 2.0 6.0 0.00 0.00 0.00 84 1010.3
20260505030610 59 68 2.0 6.0 0.00 0.00 0.00 84 1010.3
20260505030059 59 113 2.0 7.0 0.00 0.00 0.00 84 1010.1